owner,sensor,date,latitude,longitude,vertical_datum,wind_speed,wind_to_direction,wind_speed_of_gust,qcFlag 
DISL,ioos:station:DISL:BSCA:1,2013-01-01T00:00:00Z,30.3288,-87.8293,0.0,4.0,68.0,99.0,'11111222,11111222,11144222' 
DISL,ioos:station:DISL:BSCA:1,2013-01-01T00:30:00Z,30.3288,-87.8293,0.0,5.7,75.0,99.0,'11111222,11111222,11144222' 
DISL,ioos:station:DISL:BSCA:1,2013-01-01T01:00:00Z,30.3288,-87.8293,0.0,5.2,73.0,99.0,'11111222,11111222,11144222' 
DISL,ioos:station:DISL:BSCA:1,2013-01-01T01:30:00Z,30.3288,-87.8293,0.0,5.0,62.0,99.0,'11111222,11111222,11144222' 
DISL,ioos:station:DISL:BSCA:1,2013-01-01T02:00:00Z,30.3288,-87.8293,0.0,4.2,57.0,99.0,'11111222,11111222,11144222' 
DISL,ioos:station:DISL:BSCA:1,2013-01-01T02:30:00Z,30.3288,-87.8293,0.0,4.1,52.0,99.0,'11111222,11111222,11144222' 
DISL,ioos:station:DISL:BSCA:1,2013-01-01T03:00:00Z,30.3288,-87.8293,0.0,3.6,85.0,99.0,'11111222,11111222,11144222' 
DISL,ioos:station:DISL:BSCA:1,2013-01-01T03:30:00Z,30.3288,-87.8293,0.0,4.2,91.0,99.0,'11111222,11111222,11144222' 
DISL,ioos:station:DISL:BSCA:1,2013-01-01T04:00:00Z,30.3288,-87.8293,0.0,4.0,92.0,99.0,'11111222,11111222,11144222' 
DISL,ioos:station:DISL:BSCA:1,2013-01-01T04:30:00Z,30.3288,-87.8293,0.0,4.4,92.0,99.0,'11111222,11111222,11144222' 
DISL,ioos:station:DISL:BSCA:1,2013-01-01T05:00:00Z,30.3288,-87.8293,0.0,4.1,101.0,99.0,'11111222,11111222,11144222' 
DISL,ioos:station:DISL:BSCA:1,2013-01-01T05:30:00Z,30.3288,-87.8293,0.0,3.6,107.0,99.0,'11111222,11111222,11144222' 
DISL,ioos:station:DISL:BSCA:1,2013-01-01T06:00:00Z,30.3288,-87.8293,0.0,4.0,108.0,99.0,'11111222,11111222,11144222' 
DISL,ioos:station:DISL:BSCA:1,2013-01-01T06:30:00Z,30.3288,-87.8293,0.0,4.26,109.1,-9999.0,'1111122,1111122,1111122' 
DISL,ioos:station:DISL:BSCA:1,2013-01-01T07:00:00Z,30.3288,-87.8293,0.0,5.06,117.3,-9999.0,'1111122,1111122,1111122' 
DISL,ioos:station:DISL:BSCA:1,2013-01-01T07:30:00Z,30.3288,-87.8293,0.0,5.12,138.0,-9999.0,'1111122,1111122,1111122' 
DISL,ioos:station:DISL:BSCA:1,2013-01-01T08:00:00Z,30.3288,-87.8293,0.0,4.56,153.8,-9999.0,'1111122,1111122,1111122' 
DISL,ioos:station:DISL:BSCA:1,2013-01-01T08:30:00Z,30.3288,-87.8293,0.0,5.24,152.5,-9999.0,'1111122,1111122,1111122' 
DISL,ioos:station:DISL:BSCA:1,2013-01-01T09:00:00Z,30.3288,-87.8293,0.0,6.03,153.0,-9999.0,'1111122,1111122,1111122' 
DISL,ioos:station:DISL:BSCA:1,2013-01-01T09:30:00Z,30.3288,-87.8293,0.0,4.73,150.6,-9999.0,'1111122,1111122,1111122' 
DISL,ioos:station:DISL:BSCA:1,2013-01-01T10:00:00Z,30.3288,-87.8293,0.0,5.28,160.5,-9999.0,'1111122,1111122,1111122' 
DISL,ioos:station:DISL:BSCA:1,2013-01-01T10:30:00Z,30.3288,-87.8293,0.0,6.43,161.5,-9999.0,'1111122,1111122,1111122' 
DISL,ioos:station:DISL:BSCA:1,2013-01-01T11:00:00Z,30.3288,-87.8293,0.0,5.13,155.9,-9999.0,'1111122,1111122,1111122' 
DISL,ioos:station:DISL:BSCA:1,2013-01-01T11:30:00Z,30.3288,-87.8293,0.0,4.92,153.9,-9999.0,'1111122,1111122,1111122' 
DISL,ioos:station:DISL:BSCA:1,2013-01-01T12:00:00Z,30.3288,-87.8293,0.0,4.86,155.6,-9999.0,'1111122,1111122,1111122' 
DISL,ioos:station:DISL:BSCA:1,2013-01-01T12:30:00Z,30.3288,-87.8293,0.0,4.92,147.5,-9999.0,'1111122,1111122,1111122' 
DISL,ioos:station:DISL:BSCA:1,2013-01-01T13:00:00Z,30.3288,-87.8293,0.0,3.96,147.4,-9999.0,'1111122,1111122,1111122' 
DISL,ioos:station:DISL:BSCA:1,2013-01-01T13:30:00Z,30.3288,-87.8293,0.0,5.31,156.6,-9999.0,'1111122,1111122,1111122' 
DISL,ioos:station:DISL:BSCA:1,2013-01-01T14:00:00Z,30.3288,-87.8293,0.0,5.4,163.8,-9999.0,'1111122,1111122,1111122' 
DISL,ioos:station:DISL:BSCA:1,2013-01-01T14:30:00Z,30.3288,-87.8293,0.0,5.67,165.3,-9999.0,'1111122,1111122,1111122' 
DISL,ioos:station:DISL:BSCA:1,2013-01-01T15:00:00Z,30.3288,-87.8293,0.0,4.22,156.9,-9999.0,'1111122,1111122,1111122' 
DISL,ioos:station:DISL:BSCA:1,2013-01-01T15:30:00Z,30.3288,-87.8293,0.0,4.67,159.0,-9999.0,'1111122,1111122,1111122' 
DISL,ioos:station:DISL:BSCA:1,2013-01-01T16:00:00Z,30.3288,-87.8293,0.0,4.59,155.9,-9999.0,'1111122,1111122,1111122' 
DISL,ioos:station:DISL:BSCA:1,2013-01-01T16:30:00Z,30.3288,-87.8293,0.0,4.77,157.8,-9999.0,'1111122,1111122,1111122' 
DISL,ioos:station:DISL:BSCA:1,2013-01-01T17:00:00Z,30.3288,-87.8293,0.0,4.67,162.1,-9999.0,'1111122,1111122,1111122' 
DISL,ioos:station:DISL:BSCA:1,2013-01-01T17:30:00Z,30.3288,-87.8293,0.0,3.37,162.2,-9999.0,'1111122,1111122,1111122' 
DISL,ioos:station:DISL:BSCA:1,2013-01-01T18:00:00Z,30.3288,-87.8293,0.0,4.31,164.7,-9999.0,'1111122,1111122,1111122' 
DISL,ioos:station:DISL:BSCA:1,2013-01-01T18:30:00Z,30.3288,-87.8293,0.0,5.54,201.4,-9999.0,'1111122,1111122,1111122' 
DISL,ioos:station:DISL:BSCA:1,2013-01-01T19:00:00Z,30.3288,-87.8293,0.0,4.77,183.3,-9999.0,'1111122,1111122,1111122' 
DISL,ioos:station:DISL:BSCA:1,2013-01-01T19:30:00Z,30.3288,-87.8293,0.0,3.98,169.9,-9999.0,'1111122,1111122,1111122' 
DISL,ioos:station:DISL:BSCA:1,2013-01-01T20:00:00Z,30.3288,-87.8293,0.0,4.55,182.0,-9999.0,'1111122,1111122,1111122' 
DISL,ioos:station:DISL:BSCA:1,2013-01-01T20:30:00Z,30.3288,-87.8293,0.0,3.53,184.2,-9999.0,'1111122,1111122,1111122' 
DISL,ioos:station:DISL:BSCA:1,2013-01-01T21:00:00Z,30.3288,-87.8293,0.0,3.09,175.2,-9999.0,'1111122,1111122,1111122' 
DISL,ioos:station:DISL:BSCA:1,2013-01-01T21:30:00Z,30.3288,-87.8293,0.0,2.86,170.0,-9999.0,'1111122,1111122,1111122' 
DISL,ioos:station:DISL:BSCA:1,2013-01-01T22:00:00Z,30.3288,-87.8293,0.0,3.26,162.8,-9999.0,'1111122,1111122,1111122' 
DISL,ioos:station:DISL:BSCA:1,2013-01-01T22:30:00Z,30.3288,-87.8293,0.0,3.99,152.7,-9999.0,'1111122,1111122,1111122' 
DISL,ioos:station:DISL:BSCA:1,2013-01-01T23:00:00Z,30.3288,-87.8293,0.0,3.99,145.4,-9999.0,'1111122,1111122,1111122' 
DISL,ioos:station:DISL:BSCA:1,2013-01-01T23:30:00Z,30.3288,-87.8293,0.0,3.5,153.3,-9999.0,'1111122,1111122,1111122' 
DISL,ioos:station:DISL:BSCA:1,2013-01-02T00:00:00Z,30.3288,-87.8293,0.0,4.36,160.7,-9999.0,'1111122,1111122,1111122' 
DISL,ioos:station:DISL:BSCA:1,2013-01-02T00:30:00Z,30.3288,-87.8293,0.0,3.58,169.4,-9999.0,'1111122,1111122,1111122' 
DISL,ioos:station:DISL:BSCA:1,2013-01-02T01:00:00Z,30.3288,-87.8293,0.0,3.55,178.8,-9999.0,'1111122,1111122,1111122' 
DISL,ioos:station:DISL:BSCA:1,2013-01-02T01:30:00Z,30.3288,-87.8293,0.0,3.88,167.9,-9999.0,'1111122,1111122,1111122' 
DISL,ioos:station:DISL:BSCA:1,2013-01-02T02:00:00Z,30.3288,-87.8293,0.0,3.89,174.6,-9999.0,'1111122,1111122,1111122' 
DISL,ioos:station:DISL:BSCA:1,2013-01-02T02:30:00Z,30.3288,-87.8293,0.0,3.91,179.6,-9999.0,'1111122,1111122,1111122' 
DISL,ioos:station:DISL:BSCA:1,2013-01-02T03:00:00Z,30.3288,-87.8293,0.0,3.13,210.0,-9999.0,'1111122,1111122,1111122' 
DISL,ioos:station:DISL:BSCA:1,2013-01-02T03:30:00Z,30.3288,-87.8293,0.0,4.58,259.8,-9999.0,'1111122,1111122,1111122' 
DISL,ioos:station:DISL:BSCA:1,2013-01-02T04:00:00Z,30.3288,-87.8293,0.0,2.9,250.2,-9999.0,'1111122,1111122,1111122' 
DISL,ioos:station:DISL:BSCA:1,2013-01-02T04:30:00Z,30.3288,-87.8293,0.0,4.34,257.4,-9999.0,'1111122,1111122,1111122' 
DISL,ioos:station:DISL:BSCA:1,2013-01-02T05:00:00Z,30.3288,-87.8293,0.0,8.24,326.7,-9999.0,'1111122,1111122,1111122' 
DISL,ioos:station:DISL:BSCA:1,2013-01-02T05:30:00Z,30.3288,-87.8293,0.0,7.44,334.0,-9999.0,'1111122,1111122,1111122' 
DISL,ioos:station:DISL:BSCA:1,2013-01-02T06:00:00Z,30.3288,-87.8293,0.0,5.89,4.795,-9999.0,'1111122,1111122,1111122' 
DISL,ioos:station:DISL:BSCA:1,2013-01-02T06:30:00Z,30.3288,-87.8293,0.0,5.18,350.7,-9999.0,'1111122,1111122,1111122' 
DISL,ioos:station:DISL:BSCA:1,2013-01-02T07:00:00Z,30.3288,-87.8293,0.0,6.32,0.875,-9999.0,'1111122,1111122,1111122' 
DISL,ioos:station:DISL:BSCA:1,2013-01-02T07:30:00Z,30.3288,-87.8293,0.0,5.05,1.306,-9999.0,'1111122,1111122,1111122' 
DISL,ioos:station:DISL:BSCA:1,2013-01-02T08:00:00Z,30.3288,-87.8293,0.0,5.08,358.2,-9999.0,'1111122,1111122,1111122' 
DISL,ioos:station:DISL:BSCA:1,2013-01-02T08:30:00Z,30.3288,-87.8293,0.0,5.93,4.88,-9999.0,'1111122,1111122,1111122' 
DISL,ioos:station:DISL:BSCA:1,2013-01-02T09:00:00Z,30.3288,-87.8293,0.0,5.7,359.1,-9999.0,'1111122,1111122,1111122' 
DISL,ioos:station:DISL:BSCA:1,2013-01-02T09:30:00Z,30.3288,-87.8293,0.0,5.75,3.17,-9999.0,'1111122,1111122,1111122' 
DISL,ioos:station:DISL:BSCA:1,2013-01-02T10:00:00Z,30.3288,-87.8293,0.0,5.8,354.6,-9999.0,'1111122,1111122,1111122' 
DISL,ioos:station:DISL:BSCA:1,2013-01-02T10:30:00Z,30.3288,-87.8293,0.0,6.87,358.6,-9999.0,'1111122,1111122,1111122' 
DISL,ioos:station:DISL:BSCA:1,2013-01-02T11:00:00Z,30.3288,-87.8293,0.0,6.58,357.2,-9999.0,'1111122,1111122,1111122' 
DISL,ioos:station:DISL:BSCA:1,2013-01-02T11:30:00Z,30.3288,-87.8293,0.0,7.55,349.2,-9999.0,'1111122,1111122,1111122' 
DISL,ioos:station:DISL:BSCA:1,2013-01-02T12:00:00Z,30.3288,-87.8293,0.0,5.15,359.0,-9999.0,'1111122,1111122,1111122' 
DISL,ioos:station:DISL:BSCA:1,2013-01-02T12:30:00Z,30.3288,-87.8293,0.0,5.11,0.119,-9999.0,'1111122,1111122,1111122' 
DISL,ioos:station:DISL:BSCA:1,2013-01-02T13:00:00Z,30.3288,-87.8293,0.0,5.61,9.04,-9999.0,'1111122,1111122,1111122' 
DISL,ioos:station:DISL:BSCA:1,2013-01-02T13:30:00Z,30.3288,-87.8293,0.0,6.05,4.563,-9999.0,'1111122,1111122,1111122' 
DISL,ioos:station:DISL:BSCA:1,2013-01-02T14:00:00Z,30.3288,-87.8293,0.0,6.15,10.29,-9999.0,'1111122,1111122,1111122' 
DISL,ioos:station:DISL:BSCA:1,2013-01-02T14:30:00Z,30.3288,-87.8293,0.0,5.69,14.41,-9999.0,'1111122,1111122,1111122' 
DISL,ioos:station:DISL:BSCA:1,2013-01-02T15:00:00Z,30.3288,-87.8293,0.0,6.14,13.0,-9999.0,'1111122,1111122,1111122' 
DISL,ioos:station:DISL:BSCA:1,2013-01-02T15:30:00Z,30.3288,-87.8293,0.0,6.71,359.5,-9999.0,'1111122,1111122,1111122' 
DISL,ioos:station:DISL:BSCA:1,2013-01-02T16:00:00Z,30.3288,-87.8293,0.0,4.45,15.93,-9999.0,'1111122,1111122,1111122' 
DISL,ioos:station:DISL:BSCA:1,2013-01-02T16:30:00Z,30.3288,-87.8293,0.0,5.21,351.4,-9999.0,'1111122,1111122,1111122' 
DISL,ioos:station:DISL:BSCA:1,2013-01-02T17:00:00Z,30.3288,-87.8293,0.0,6.27,359.5,-9999.0,'1111122,1111122,1111122' 
DISL,ioos:station:DISL:BSCA:1,2013-01-02T17:30:00Z,30.3288,-87.8293,0.0,6.01,357.3,-9999.0,'1111122,1111122,1111122' 
DISL,ioos:station:DISL:BSCA:1,2013-01-02T18:00:00Z,30.3288,-87.8293,0.0,5.64,359.7,-9999.0,'1111122,1111122,1111122' 
DISL,ioos:station:DISL:BSCA:1,2013-01-02T18:30:00Z,30.3288,-87.8293,0.0,5.62,349.6,-9999.0,'1111122,1111122,1111122' 
DISL,ioos:station:DISL:BSCA:1,2013-01-02T19:00:00Z,30.3288,-87.8293,0.0,4.39,8.63,-9999.0,'1111122,1111122,1111122' 
DISL,ioos:station:DISL:BSCA:1,2013-01-02T19:30:00Z,30.3288,-87.8293,0.0,5.83,343.3,-9999.0,'1111122,1111122,1111122' 
DISL,ioos:station:DISL:BSCA:1,2013-01-02T20:00:00Z,30.3288,-87.8293,0.0,6.02,345.1,-9999.0,'1111122,1111122,1111122' 
DISL,ioos:station:DISL:BSCA:1,2013-01-02T20:30:00Z,30.3288,-87.8293,0.0,4.57,356.7,-9999.0,'1111122,1111122,1111122' 
DISL,ioos:station:DISL:BSCA:1,2013-01-02T21:00:00Z,30.3288,-87.8293,0.0,5.68,348.7,-9999.0,'1111122,1111122,1111122' 
DISL,ioos:station:DISL:BSCA:1,2013-01-02T21:30:00Z,30.3288,-87.8293,0.0,4.88,359.8,-9999.0,'1111122,1111122,1111122' 
DISL,ioos:station:DISL:BSCA:1,2013-01-02T22:00:00Z,30.3288,-87.8293,0.0,5.04,350.7,-9999.0,'1111122,1111122,1111122' 
DISL,ioos:station:DISL:BSCA:1,2013-01-02T22:30:00Z,30.3288,-87.8293,0.0,5.96,340.8,-9999.0,'1111122,1111122,1111122' 
DISL,ioos:station:DISL:BSCA:1,2013-01-02T23:00:00Z,30.3288,-87.8293,0.0,6.32,340.4,-9999.0,'1111122,1111122,1111122' 
DISL,ioos:station:DISL:BSCA:1,2013-01-02T23:30:00Z,30.3288,-87.8293,0.0,6.68,337.5,-9999.0,'1111122,1111122,1111122' 
DISL,ioos:station:DISL:BSCA:1,2013-01-03T00:00:00Z,30.3288,-87.8293,0.0,5.94,354.9,-9999.0,'1111122,1111122,1111122' 
DISL,ioos:station:DISL:BSCA:1,2013-01-03T00:30:00Z,30.3288,-87.8293,0.0,6.13,0.343,-9999.0,'1111122,1111122,1111122' 
DISL,ioos:station:DISL:BSCA:1,2013-01-03T01:00:00Z,30.3288,-87.8293,0.0,7.15,358.8,-9999.0,'1111122,1111122,1111122' 
DISL,ioos:station:DISL:BSCA:1,2013-01-03T01:30:00Z,30.3288,-87.8293,0.0,5.17,6.58,-9999.0,'1111122,1111122,1111122' 
DISL,ioos:station:DISL:BSCA:1,2013-01-03T02:00:00Z,30.3288,-87.8293,0.0,5.93,355.2,-9999.0,'1111122,1111122,1111122' 
DISL,ioos:station:DISL:BSCA:1,2013-01-03T02:30:00Z,30.3288,-87.8293,0.0,6.41,1.5,-9999.0,'1111122,1111122,1111122' 
DISL,ioos:station:DISL:BSCA:1,2013-01-03T03:00:00Z,30.3288,-87.8293,0.0,6.74,358.0,-9999.0,'1111122,1111122,1111122' 
DISL,ioos:station:DISL:BSCA:1,2013-01-03T03:30:00Z,30.3288,-87.8293,0.0,5.51,1.126,-9999.0,'1111122,1111122,1111122' 
DISL,ioos:station:DISL:BSCA:1,2013-01-03T04:00:00Z,30.3288,-87.8293,0.0,5.44,4.775,-9999.0,'1111122,1111122,1111122' 
DISL,ioos:station:DISL:BSCA:1,2013-01-03T04:30:00Z,30.3288,-87.8293,0.0,5.76,5.998,-9999.0,'1111122,1111122,1111122' 
DISL,ioos:station:DISL:BSCA:1,2013-01-03T05:00:00Z,30.3288,-87.8293,0.0,6.24,351.0,-9999.0,'1111122,1111122,1111122' 
DISL,ioos:station:DISL:BSCA:1,2013-01-03T05:30:00Z,30.3288,-87.8293,0.0,6.17,6.868,-9999.0,'1111122,1111122,1111122' 
DISL,ioos:station:DISL:BSCA:1,2013-01-03T06:00:00Z,30.3288,-87.8293,0.0,4.72,358.8,-9999.0,'1111122,1111122,1111122' 
DISL,ioos:station:DISL:BSCA:1,2013-01-03T06:30:00Z,30.3288,-87.8293,0.0,4.73,6.678,-9999.0,'1111122,1111122,1111122' 
DISL,ioos:station:DISL:BSCA:1,2013-01-03T07:00:00Z,30.3288,-87.8293,0.0,4.27,8.39,-9999.0,'1111122,1111122,1111122' 
DISL,ioos:station:DISL:BSCA:1,2013-01-03T07:30:00Z,30.3288,-87.8293,0.0,5.71,356.6,-9999.0,'1111122,1111122,1111122' 
DISL,ioos:station:DISL:BSCA:1,2013-01-03T08:00:00Z,30.3288,-87.8293,0.0,4.83,359.2,-9999.0,'1111122,1111122,1111122' 
DISL,ioos:station:DISL:BSCA:1,2013-01-03T08:30:00Z,30.3288,-87.8293,0.0,5.49,355.6,-9999.0,'1111122,1111122,1111122' 
DISL,ioos:station:DISL:BSCA:1,2013-01-03T09:00:00Z,30.3288,-87.8293,0.0,4.41,7.868,-9999.0,'1111122,1111122,1111122' 
DISL,ioos:station:DISL:BSCA:1,2013-01-03T09:30:00Z,30.3288,-87.8293,0.0,3.82,13.64,-9999.0,'1111122,1111122,1111122' 
DISL,ioos:station:DISL:BSCA:1,2013-01-03T10:00:00Z,30.3288,-87.8293,0.0,5.57,1.186,-9999.0,'1111122,1111122,1111122' 
DISL,ioos:station:DISL:BSCA:1,2013-01-03T10:30:00Z,30.3288,-87.8293,0.0,5.18,5.545,-9999.0,'1111122,1111122,1111122' 
DISL,ioos:station:DISL:BSCA:1,2013-01-03T11:00:00Z,30.3288,-87.8293,0.0,4.07,4.015,-9999.0,'1111122,1111122,1111122' 
DISL,ioos:station:DISL:BSCA:1,2013-01-03T11:30:00Z,30.3288,-87.8293,0.0,5.01,2.448,-9999.0,'1111122,1111122,1111122' 
DISL,ioos:station:DISL:BSCA:1,2013-01-03T12:00:00Z,30.3288,-87.8293,0.0,5.03,7.648,-9999.0,'1111122,1111122,1111122' 
DISL,ioos:station:DISL:BSCA:1,2013-01-03T12:30:00Z,30.3288,-87.8293,0.0,5.32,9.53,-9999.0,'1111122,1111122,1111122' 
DISL,ioos:station:DISL:BSCA:1,2013-01-03T13:00:00Z,30.3288,-87.8293,0.0,7.3,359.7,-9999.0,'1111122,1111122,1111122' 
DISL,ioos:station:DISL:BSCA:1,2013-01-03T13:30:00Z,30.3288,-87.8293,0.0,6.66,1.042,-9999.0,'1111122,1111122,1111122' 
DISL,ioos:station:DISL:BSCA:1,2013-01-03T14:00:00Z,30.3288,-87.8293,0.0,7.33,350.1,-9999.0,'1111122,1111122,1111122' 
DISL,ioos:station:DISL:BSCA:1,2013-01-03T14:30:00Z,30.3288,-87.8293,0.0,5.4,16.51,-9999.0,'1111122,1111122,1111122' 
DISL,ioos:station:DISL:BSCA:1,2013-01-03T15:00:00Z,30.3288,-87.8293,0.0,5.24,5.166,-9999.0,'1111122,1111122,1111122' 
DISL,ioos:station:DISL:BSCA:1,2013-01-03T15:30:00Z,30.3288,-87.8293,0.0,6.43,355.5,-9999.0,'1111122,1111122,1111122' 
DISL,ioos:station:DISL:BSCA:1,2013-01-03T16:00:00Z,30.3288,-87.8293,0.0,6.16,7.231,-9999.0,'1111122,1111122,1111122' 
DISL,ioos:station:DISL:BSCA:1,2013-01-03T16:30:00Z,30.3288,-87.8293,0.0,6.46,0.389,-9999.0,'1111122,1111122,1111122' 
DISL,ioos:station:DISL:BSCA:1,2013-01-03T17:00:00Z,30.3288,-87.8293,0.0,5.9,12.15,-9999.0,'1111122,1111122,1111122' 
DISL,ioos:station:DISL:BSCA:1,2013-01-03T17:30:00Z,30.3288,-87.8293,0.0,5.83,5.814,-9999.0,'1111122,1111122,1111122' 
DISL,ioos:station:DISL:BSCA:1,2013-01-03T18:00:00Z,30.3288,-87.8293,0.0,6.57,1.114,-9999.0,'1111122,1111122,1111122' 
DISL,ioos:station:DISL:BSCA:1,2013-01-03T18:30:00Z,30.3288,-87.8293,0.0,5.51,355.9,-9999.0,'1111122,1111122,1111122' 
DISL,ioos:station:DISL:BSCA:1,2013-01-03T19:00:00Z,30.3288,-87.8293,0.0,6.46,6.516,-9999.0,'1111122,1111122,1111122' 
DISL,ioos:station:DISL:BSCA:1,2013-01-03T19:30:00Z,30.3288,-87.8293,0.0,5.1,350.6,-9999.0,'1111122,1111122,1111122' 
DISL,ioos:station:DISL:BSCA:1,2013-01-03T20:00:00Z,30.3288,-87.8293,0.0,5.22,347.2,-9999.0,'1111122,1111122,1111122' 
DISL,ioos:station:DISL:BSCA:1,2013-01-03T20:30:00Z,30.3288,-87.8293,0.0,5.64,0.724,-9999.0,'1111122,1111122,1111122' 
DISL,ioos:station:DISL:BSCA:1,2013-01-03T21:00:00Z,30.3288,-87.8293,0.0,7.01,359.7,-9999.0,'1111122,1111122,1111122' 
DISL,ioos:station:DISL:BSCA:1,2013-01-03T21:30:00Z,30.3288,-87.8293,0.0,6.09,12.83,-9999.0,'1111122,1111122,1111122' 
DISL,ioos:station:DISL:BSCA:1,2013-01-03T22:00:00Z,30.3288,-87.8293,0.0,5.06,9.59,-9999.0,'1111122,1111122,1111122' 
DISL,ioos:station:DISL:BSCA:1,2013-01-03T22:30:00Z,30.3288,-87.8293,0.0,4.73,359.1,-9999.0,'1111122,1111122,1111122' 
DISL,ioos:station:DISL:BSCA:1,2013-01-03T23:00:00Z,30.3288,-87.8293,0.0,5.64,357.7,-9999.0,'1111122,1111122,1111122' 
DISL,ioos:station:DISL:BSCA:1,2013-01-03T23:30:00Z,30.3288,-87.8293,0.0,5.42,352.8,-9999.0,'1111122,1111122,1111122' 
DISL,ioos:station:DISL:BSCA:1,2013-01-04T00:00:00Z,30.3288,-87.8293,0.0,4.1,354.4,-9999.0,'1111122,1111122,1111122' 
DISL,ioos:station:DISL:BSCA:1,2013-01-04T00:30:00Z,30.3288,-87.8293,0.0,5.31,357.5,-9999.0,'1111122,1111122,1111122' 
DISL,ioos:station:DISL:BSCA:1,2013-01-04T01:00:00Z,30.3288,-87.8293,0.0,4.32,357.8,-9999.0,'1111122,1111122,1111122' 
DISL,ioos:station:DISL:BSCA:1,2013-01-04T01:30:00Z,30.3288,-87.8293,0.0,4.17,2.861,-9999.0,'1111122,1111122,1111122' 
DISL,ioos:station:DISL:BSCA:1,2013-01-04T02:00:00Z,30.3288,-87.8293,0.0,3.8,9.91,-9999.0,'1111122,1111122,1111122' 
DISL,ioos:station:DISL:BSCA:1,2013-01-04T02:30:00Z,30.3288,-87.8293,0.0,3.33,14.61,-9999.0,'1111122,1111122,1111122' 
DISL,ioos:station:DISL:BSCA:1,2013-01-04T03:00:00Z,30.3288,-87.8293,0.0,2.61,3.577,-9999.0,'1111122,1111122,1111122' 
DISL,ioos:station:DISL:BSCA:1,2013-01-04T03:30:00Z,30.3288,-87.8293,0.0,2.31,7.272,-9999.0,'1111122,1111122,1111122' 
DISL,ioos:station:DISL:BSCA:1,2013-01-04T04:00:00Z,30.3288,-87.8293,0.0,3.57,6.975,-9999.0,'1111122,1111122,1111122' 
DISL,ioos:station:DISL:BSCA:1,2013-01-04T04:30:00Z,30.3288,-87.8293,0.0,4.2,5.704,-9999.0,'1111122,1111122,1111122' 
DISL,ioos:station:DISL:BSCA:1,2013-01-04T05:00:00Z,30.3288,-87.8293,0.0,4.76,2.337,-9999.0,'1111122,1111122,1111122' 
DISL,ioos:station:DISL:BSCA:1,2013-01-04T05:30:00Z,30.3288,-87.8293,0.0,4.31,0.828,-9999.0,'1111122,1111122,1111122' 
DISL,ioos:station:DISL:BSCA:1,2013-01-04T06:00:00Z,30.3288,-87.8293,0.0,4.02,8.46,-9999.0,'1111122,1111122,1111122' 
DISL,ioos:station:DISL:BSCA:1,2013-01-04T06:30:00Z,30.3288,-87.8293,0.0,3.34,5.151,-9999.0,'1111122,1111122,1111122' 
DISL,ioos:station:DISL:BSCA:1,2013-01-04T07:00:00Z,30.3288,-87.8293,0.0,3.75,5.466,-9999.0,'1111122,1111122,1111122' 
DISL,ioos:station:DISL:BSCA:1,2013-01-04T07:30:00Z,30.3288,-87.8293,0.0,3.96,2.844,-9999.0,'1111122,1111122,1111122' 
DISL,ioos:station:DISL:BSCA:1,2013-01-04T08:00:00Z,30.3288,-87.8293,0.0,4.86,0.856,-9999.0,'1111122,1111122,1111122' 
DISL,ioos:station:DISL:BSCA:1,2013-01-04T08:30:00Z,30.3288,-87.8293,0.0,4.5,5.046,-9999.0,'1111122,1111122,1111122' 
DISL,ioos:station:DISL:BSCA:1,2013-01-04T09:00:00Z,30.3288,-87.8293,0.0,5.77,18.1,-9999.0,'1111122,1111122,1111122' 
DISL,ioos:station:DISL:BSCA:1,2013-01-04T09:30:00Z,30.3288,-87.8293,0.0,5.38,9.4,-9999.0,'1111122,1111122,1111122' 
DISL,ioos:station:DISL:BSCA:1,2013-01-04T10:00:00Z,30.3288,-87.8293,0.0,5.4,8.24,-9999.0,'1111122,1111122,1111122' 
DISL,ioos:station:DISL:BSCA:1,2013-01-04T10:30:00Z,30.3288,-87.8293,0.0,4.34,2.814,-9999.0,'1111122,1111122,1111122' 
DISL,ioos:station:DISL:BSCA:1,2013-01-04T11:00:00Z,30.3288,-87.8293,0.0,4.74,9.45,-9999.0,'1111122,1111122,1111122' 
DISL,ioos:station:DISL:BSCA:1,2013-01-04T11:30:00Z,30.3288,-87.8293,0.0,4.74,13.24,-9999.0,'1111122,1111122,1111122' 
DISL,ioos:station:DISL:BSCA:1,2013-01-04T12:00:00Z,30.3288,-87.8293,0.0,3.71,20.37,-9999.0,'1111122,1111122,1111122' 
DISL,ioos:station:DISL:BSCA:1,2013-01-04T12:30:00Z,30.3288,-87.8293,0.0,4.39,38.46,-9999.0,'1111122,1111122,1111122' 
DISL,ioos:station:DISL:BSCA:1,2013-01-04T13:00:00Z,30.3288,-87.8293,0.0,4.4,26.19,-9999.0,'1111122,1111122,1111122' 
DISL,ioos:station:DISL:BSCA:1,2013-01-04T13:30:00Z,30.3288,-87.8293,0.0,6.71,41.89,-9999.0,'1111122,1111122,1111122' 
DISL,ioos:station:DISL:BSCA:1,2013-01-04T14:00:00Z,30.3288,-87.8293,0.0,6.46,37.79,-9999.0,'1111122,1111122,1111122' 
DISL,ioos:station:DISL:BSCA:1,2013-01-04T14:30:00Z,30.3288,-87.8293,0.0,5.39,26.5,-9999.0,'1111122,1111122,1111122' 
DISL,ioos:station:DISL:BSCA:1,2013-01-04T15:00:00Z,30.3288,-87.8293,0.0,5.82,24.09,-9999.0,'1111122,1111122,1111122' 
DISL,ioos:station:DISL:BSCA:1,2013-01-04T15:30:00Z,30.3288,-87.8293,0.0,5.46,24.22,-9999.0,'1111122,1111122,1111122' 
DISL,ioos:station:DISL:BSCA:1,2013-01-04T16:00:00Z,30.3288,-87.8293,0.0,5.39,22.79,-9999.0,'1111122,1111122,1111122' 
DISL,ioos:station:DISL:BSCA:1,2013-01-04T16:30:00Z,30.3288,-87.8293,0.0,5.36,30.57,-9999.0,'1111122,1111122,1111122' 
DISL,ioos:station:DISL:BSCA:1,2013-01-04T17:00:00Z,30.3288,-87.8293,0.0,4.54,34.57,-9999.0,'1111122,1111122,1111122' 
DISL,ioos:station:DISL:BSCA:1,2013-01-04T17:30:00Z,30.3288,-87.8293,0.0,4.36,24.71,-9999.0,'1111122,1111122,1111122' 
DISL,ioos:station:DISL:BSCA:1,2013-01-04T18:00:00Z,30.3288,-87.8293,0.0,4.4,28.07,-9999.0,'1111122,1111122,1111122' 
DISL,ioos:station:DISL:BSCA:1,2013-01-04T18:30:00Z,30.3288,-87.8293,0.0,3.98,35.04,-9999.0,'1111122,1111122,1111122' 
DISL,ioos:station:DISL:BSCA:1,2013-01-04T19:00:00Z,30.3288,-87.8293,0.0,4.22,42.83,-9999.0,'1111122,1111122,1111122' 
DISL,ioos:station:DISL:BSCA:1,2013-01-04T19:30:00Z,30.3288,-87.8293,0.0,4.56,7.561,-9999.0,'1111122,1111122,1111122' 
DISL,ioos:station:DISL:BSCA:1,2013-01-04T20:00:00Z,30.3288,-87.8293,0.0,3.95,0.584,-9999.0,'1111122,1111122,1111122' 
DISL,ioos:station:DISL:BSCA:1,2013-01-04T20:30:00Z,30.3288,-87.8293,0.0,2.84,31.76,-9999.0,'1111122,1111122,1111122' 
DISL,ioos:station:DISL:BSCA:1,2013-01-04T21:00:00Z,30.3288,-87.8293,0.0,2.53,18.78,-9999.0,'1111122,1111122,1111122' 
DISL,ioos:station:DISL:BSCA:1,2013-01-04T21:30:00Z,30.3288,-87.8293,0.0,2.64,46.56,-9999.0,'1111122,1111122,1111122' 
DISL,ioos:station:DISL:BSCA:1,2013-01-04T22:00:00Z,30.3288,-87.8293,0.0,3.1,14.46,-9999.0,'1111122,1111122,1111122' 
DISL,ioos:station:DISL:BSCA:1,2013-01-04T22:30:00Z,30.3288,-87.8293,0.0,2.01,24.22,-9999.0,'1111122,1111122,1111122' 
DISL,ioos:station:DISL:BSCA:1,2013-01-04T23:00:00Z,30.3288,-87.8293,0.0,2.58,355.2,-9999.0,'1111122,1111122,1111122' 
DISL,ioos:station:DISL:BSCA:1,2013-01-04T23:30:00Z,30.3288,-87.8293,0.0,2.55,10.33,-9999.0,'1111122,1111122,1111122' 
DISL,ioos:station:DISL:BSCA:1,2013-01-05T00:00:00Z,30.3288,-87.8293,0.0,1.84,34.57,-9999.0,'1111122,1111122,1111122' 
DISL,ioos:station:DISL:BSCA:1,2013-01-05T00:30:00Z,30.3288,-87.8293,0.0,1.56,343.6,-9999.0,'1111122,1111122,1111122' 
DISL,ioos:station:DISL:BSCA:1,2013-01-05T01:00:00Z,30.3288,-87.8293,0.0,1.96,33.82,-9999.0,'1111122,1111122,1111122' 
DISL,ioos:station:DISL:BSCA:1,2013-01-05T01:30:00Z,30.3288,-87.8293,0.0,1.66,48.3,-9999.0,'1111122,1111122,1111122' 
DISL,ioos:station:DISL:BSCA:1,2013-01-05T02:00:00Z,30.3288,-87.8293,0.0,2.68,26.28,-9999.0,'1111122,1111122,1111122' 
DISL,ioos:station:DISL:BSCA:1,2013-01-05T02:30:00Z,30.3288,-87.8293,0.0,2.22,28.09,-9999.0,'1111122,1111122,1111122' 
DISL,ioos:station:DISL:BSCA:1,2013-01-05T03:00:00Z,30.3288,-87.8293,0.0,2.08,6.025,-9999.0,'1111122,1111122,1111122' 
DISL,ioos:station:DISL:BSCA:1,2013-01-05T03:30:00Z,30.3288,-87.8293,0.0,3.35,23.7,-9999.0,'1111122,1111122,1111122' 
DISL,ioos:station:DISL:BSCA:1,2013-01-05T04:00:00Z,30.3288,-87.8293,0.0,3.26,33.57,-9999.0,'1111122,1111122,1111122' 
DISL,ioos:station:DISL:BSCA:1,2013-01-05T04:30:00Z,30.3288,-87.8293,0.0,3.43,38.56,-9999.0,'1111122,1111122,1111122' 